Regional Weather Roundup
Issued by NWS Green Bay, WI

Home | Current Version | Previous Version | Graphics & Text | Print | Product List | Glossary Off
Versions: 1 2 3 4 5 6 7 8 9 10 11 12 13 14 15 16 17 18 19 20 21 22 23 24 25 26 27 28 29 30 31 32 33 34 35 36 37 38 39 40 41 42 43 44 45 46 47 48 49 50

060
ASUS43 KGRB 060211
RWRGRB

NORTH-CENTRAL AND NORTHEAST WISCONSIN REGIONAL WEATHER ROUNDUP
NATIONAL WEATHER SERVICE GREEN BAY WI
900 PM CDT THU MAY 05 2016

WIZ005-009-010>012-018-019-060300-
NORTH CENTRAL WISCONSIN

CITY           SKY/WX    TMP DP  RH WIND       PRES   REMARKS
IRONWOOD         N/A     64  39  39 S8        29.83S
MANITOWISH WTR CLEAR     58  38  49 S5        29.89S
ARBOR VITAE    PTCLDY    60  40  47 SW3       29.90R
EAGLE RIVER    CLOUDY    58  35  42 SW3       29.90S
LAND O LAKES   CLOUDY    59  36  41 S3        29.91S
RHINELANDER    CLOUDY    60  38  43 CALM      29.92S
PHILLIPS       PTCLDY    59  39  47 S6        29.89F
ANTIGO         CLEAR     53  39  59 CALM      29.93R
TOMAHAWK       PTCLDY    57  38  49 S3        29.92R
MERRILL        MOCLDY    58  43  56 CALM      29.93S
$$

WIZ013-073-060300-
NORTHEAST WISCONSIN

CITY           SKY/WX    TMP DP  RH WIND       PRES   REMARKS
IRON MOUNTAIN  CLOUDY    57  39  51 SE6       29.89R
MARINETTE      CLEAR     50  39  66 E6        29.92S
OCONTO         CLEAR     52  45  76 S7        29.91S
$$

WIZ017-030-035>037-045-060300-
CENTRAL WISCONSIN

CITY           SKY/WX    TMP DP  RH WIND       PRES   REMARKS
MEDFORD        PTCLDY    57  41  54 S3        29.92S
WAUSAU         PTCLDY    61  41  47 SW5       29.90F
MOSINEE        PTCLDY    57  36  44 SW3       29.94S
MARSHFIELD     PTCLDY    61  39  44 W5        29.93S
WISC RAPIDS    CLEAR     55  38  52 CALM      29.95R
STEVENS POINT  CLEAR     53  36  52 CALM      29.93S
WAUPACA        CLEAR     58  33  39 CALM      29.93S
SHAWANO        CLEAR     63  33  32 SW3       29.92S
CLINTONVILLE   CLEAR     57  34  41 SW3       29.92S
WAUTOMA        CLEAR     54  35  48 CALM      29.94S
$$

WIZ038-039-048-051-060300-
FOX VALLEY

CITY           SKY/WX    TMP DP  RH WIND       PRES   REMARKS
NWS GREEN BAY  CLEAR     57  41  55 SW5       29.92S
APPLETON       PTCLDY    54  36  50 S7        29.92S
OSHKOSH        CLEAR     51  39  63 S5        29.93S
FOND DU LAC    CLEAR     50  41  71 SE5       29.94R
$$

WIZ022-050-052-060300-
EAST CENTRAL WISCONSIN

CITY           SKY/WX    TMP DP  RH WIND       PRES   REMARKS
EPHRAIM        FAIR      46  37  73 S5        29.92R
STURGEON BAY   CLEAR     46  36  66 S9        29.95S
MANITOWOC      CLEAR     47  38  71 SE7       29.95S
SHEBOYGAN      CLEAR     45  38  76 S7        29.96R
$$

LMZ563-521-522-541>543-060300-
LAKESHORE

STATION/POSITION TIME  TEMP    WIND        PRES    VSBY  WAVE
                       AIR SEA DIR/SP/G                  HT/PER
                 (UTC) (F)     (DEG/KT/KT) (MB)    (MI)  (FT/S)
SHEBOYGAN LKSHOR 0200   47     210/  5/  5 1015.2R
KEWAUNEE LKSHORE 0100   46                 1013.4S
ALGOMA MARINA    0115          210/ 10/ 12   N/A
NORTHPORT PIER   0100   49     190/  2/  7 1013.2F
N MID LAKE BUOY  0150   40 39  200/  6/  8 1013.8R         0
CHAMBERS ISLAND  0100   54     150/  3/  8 1013.2
MENOMINEE LKSHOR 0100   50                 1011.7F
$$




USA.gov is the U.S. government's official web portal to all federal, state and local government web resources and services.